Wind_Speed
12 11 19 28 32 31 33 37 35 42 47 38 41 37 34 34 34 32 28 30 27 23 21 22 23 23 18 6 5 7 10 13 16 16 16 17 13 13 17 22 27 34 32 32 25 23 25 22 15
15 16 27 30 30 34 37 38 37 40 44 49 44 43 38 38 40 44 44 27 22 18 16 19 20 19 9 3 6 6 10 16 15 18 14 12 11 13 18 24 29 35 32 29 26 23 24 20 17
14 19 25 27 28 34 38 41 43 44 47 48 53 55 45 41 44 48 49 42 24 17 15 17 18 14 5 4 4 7 12 15 17 15 9 3 9 13 14 21 28 30 33 29 25 24 23 18 18
19 20 24 29 30 34 37 43 46 49 52 56 58 56 45 52 48 47 50 51 31 18 15 15 15 12 6 3 3 9 15 15 16 13 4 11 15 13 16 19 27 30 29 29 25 24 20 18 16
24 24 27 29 31 33 36 40 45 49 55 62 61 56 50 48 47 48 53 53 33 18 13 14 14 10 8 5 4 8 13 16 14 12 4 16 18 16 22 19 33 27 23 26 27 26 24 18 10
27 28 30 32 32 34 38 43 47 49 54 62 62 58 51 45 43 45 51 51 33 17 11 13 13 9 10 7 3 8 11 14 13 10 7 20 19 28 24 22 28 26 30 28 28 20 16 14 14
30 31 31 33 36 39 41 43 49 51 57 61 64 59 56 58 55 42 45 44 33 13 10 11 12 7 10 8 1 6 10 12 11 10 8 23 23 29 24 27 25 23 23 29 27 22 17 16 14
31 32 32 34 38 42 40 44 49 54 59 61 66 65 59 57 54 44 44 41 37 14 11 9 9 3 10 8 3 4 9 11 11 9 9 23 24 25 28 27 27 25 26 26 22 19 14 12 13
35 35 36 38 39 40 41 46 51 56 59 64 67 69 65 55 50 43 41 39 37 15 10 6 6 5 12 9 3 5 11 19 17 11 6 21 26 27 27 24 26 25 22 21 19 15 17 14 12
37 37 36 41 42 44 49 50 50 55 58 64 66 70 63 50 42 42 40 35 44 25 11 5 3 8 13 11 5 9 14 17 22 25 14 21 24 30 26 26 26 23 20 17 15 10 10 8 10
37 36 33 37 43 45 45 48 52 56 60 63 66 68 65 50 49 40 36 36 39 31 17 9 2 10 15 14 8 11 20 20 22 22 25 10 27 27 27 26 25 24 21 14 13 9 5 3 7
34 35 32 39 45 46 49 51 53 53 59 64 66 63 62 65 60 48 41 38 36 30 23 10 4 14 18 16 11 13 14 18 19 18 18 17 10 22 24 20 17 20 14 18 13 6 3 4 5
36 35 33 37 43 49 49 52 54 55 63 65 64 65 60 66 57 50 49 36 33 34 26 12 6 16 20 20 15 15 12 10 7 6 4 8 7 12 21 24 20 17 13 15 10 5 4 4 4
39 37 36 40 41 49 52 53 55 55 63 59 65 59 52 54 42 42 37 36 34 37 35 15 6 17 23 24 19 18 11 10 5 7 8 9 8 8 18 18 20 18 17 13 7 10 7 4 3
40 40 38 40 43 45 53 53 56 56 61 57 61 56 52 46 38 32 36 40 37 34 33 15 6 15 23 23 23 20 17 6 7 4 10 10 12 11 10 15 18 18 18 12 17 14 9 7 3
42 41 41 44 47 47 53 52 58 53 58 63 56 51 50 38 34 33 32 38 40 30 21 14 9 15 23 26 29 24 19 15 12 22 20 15 14 12 13 17 20 16 15 19 19 14 16 11 8
45 46 44 46 49 48 54 56 56 50 58 61 50 48 38 34 38 29 31 36 44 33 19 13 6 12 19 23 28 30 25 23 20 22 20 20 18 17 14 16 17 17 17 19 18 19 13 14 10
49 49 51 48 49 51 54 59 57 50 61 50 42 42 40 37 38 27 31 30 38 34 19 12 6 7 10 19 28 30 32 28 28 25 24 22 21 18 18 18 23 22 18 14 15 15 14 13 10
52 54 57 57 54 55 56 60 55 56 51 46 45 42 42 37 32 28 35 35 32 34 23 15 10 3 9 14 23 29 35 30 32 26 28 24 23 21 17 18 28 24 15 17 15 13 10 16 10
54 54 59 59 62 60 58 60 56 51 45 40 43 41 42 37 35 33 36 33 21 35 24 16 18 16 12 11 15 28 35 38 36 31 31 29 25 25 21 21 22 25 23 24 23 23 19 15 14
56 58 63 61 61 62 62 58 55 48 39 35 41 39 35 33 31 33 31 23 28 22 20 16 22 23 23 15 13 21 35 38 38 36 33 33 30 29 30 24 26 24 23 24 24 25 24 18 22
61 64 65 65 61 63 58 55 53 52 37 36 35 37 32 35 29 31 22 15 27 22 19 19 19 23 27 18 18 18 29 42 43 41 37 39 33 31 32 31 29 27 27 29 24 24 28 28 27
66 67 67 69 67 62 58 56 59 39 34 36 32 32 30 30 29 28 17 14 20 22 32 26 28 42 34 26 20 17 24 36 47 45 41 38 37 36 34 33 32 30 29 30 30 29 30 31 30
71 70 70 69 62 59 61 58 47 35 40 33 28 28 26 29 29 23 1 8 13 17 28 22 32 49 32 24 26 21 19 26 40 47 46 43 40 38 38 37 36 34 33 33 35 35 34 33 34
73 71 67 62 59 52 61 54 34 36 38 32 27 26 24 27 30 18 5 12 19 15 10 4 23 35 30 28 27 23 26 22 22 34 48 50 48 44 36 41 40 38 37 36 35 37 38 37 39
72 71 69 64 56 52 52 39 38 36 37 27 21 19 21 26 10 7 5 6 13 14 7 11 18 27 27 26 24 17 19 19 21 28 40 47 49 48 44 38 39 40 39 39 39 40 41 41 42
61 58 58 59 52 49 46 41 43 36 29 18 20 23 23 26 21 29 12 14 30 31 4 16 24 21 21 23 23 21 21 22 20 23 31 36 39 42 44 43 40 40 41 42 44 43 43 43 45
49 50 47 43 44 44 41 40 37 35 19 19 21 14 15 14 18 24 6 39 39 42 31 25 23 20 18 23 24 25 19 21 21 24 26 29 33 38 40 42 43 41 44 42 42 42 40 42 42
45 44 41 41 40 40 41 38 33 30 19 18 20 12 14 21 25 24 10 5 19 27 35 26 26 29 21 23 25 25 27 22 21 22 23 22 26 28 36 40 44 43 39 39 40 38 39 39 38
42 40 38 41 40 38 34 29 29 25 20 18 16 6 16 24 33 36 23 12 17 27 32 27 34 36 33 22 22 23 24 20 20 20 21 21 19 27 33 34 37 39 34 34 35 39 41 42 40
Wind_Direction
8 354 1 360 5 11 8 7 8 12 17 21 11 13 3 7 5 352 322 307 306 308 304 307 323 321 319 308 254 285 296 299 309 306 296 286 265 222 199 186 184 180 180 180 179 170 167 177 183
23 355 355 345 354 7 6 1 358 7 12 16 16 7 359 356 1 3 0 339 320 310 305 314 322 321 312 259 273 288 298 311 318 318 303 284 228 181 182 185 180 180 175 173 175 174 172 175 192
2 343 340 342 354 1 2 0 4 4 6 9 10 8 3 1 2 4 1 358 338 328 313 324 325 319 265 254 278 295 315 325 336 332 332 248 168 158 164 179 175 178 180 179 179 173 173 181 178
337 339 340 345 351 357 359 358 360 3 5 7 9 10 5 7 3 1 4 1 350 336 319 321 326 320 237 229 285 318 323 338 340 343 357 152 164 170 163 166 168 164 177 184 181 162 158 183 165
327 332 340 335 346 353 356 354 357 360 2 5 9 8 9 2 -0 359 2 1 354 338 318 316 326 314 220 209 249 315 331 342 345 355 129 145 164 168 162 152 162 158 163 171 172 186 169 168 175
325 334 337 338 336 346 353 352 357 358 0 5 7 8 5 0 351 2 359 358 355 340 321 317 327 319 202 194 257 328 349 350 354 9 157 150 164 147 145 145 162 155 162 165 178 168 173 188 184
321 326 333 334 335 343 348 352 355 358 359 359 1 3 2 359 359 5 4 357 357 340 320 324 330 316 190 181 192 358 8 5 5 30 153 159 157 143 150 143 154 159 169 172 178 178 187 189 207
311 320 325 328 336 336 343 347 352 356 358 354 355 357 359 2 359 1 6 2 1 351 333 337 329 264 190 179 164 46 27 37 30 41 152 170 171 156 157 153 158 164 171 174 177 183 191 202 204
308 317 327 327 330 331 338 344 354 351 355 352 351 354 354 357 358 355 6 6 3 352 332 345 330 198 185 179 187 59 51 62 54 47 138 182 173 166 161 155 161 165 170 171 174 198 201 182 186
312 317 325 324 326 333 338 341 347 345 349 350 349 350 351 358 357 351 5 7 2 360 333 318 348 190 181 176 169 87 76 68 57 50 53 178 171 155 154 163 163 157 150 162 180 169 182 194 207
313 315 324 321 322 326 331 334 341 343 344 346 344 350 350 353 347 347 346 357 3 359 346 328 307 181 181 181 166 105 97 81 66 53 46 92 175 167 161 157 163 176 177 168 167 167 171 219 225
310 312 320 324 320 321 330 333 338 341 340 340 348 350 347 344 341 344 341 342 1 1 350 326 249 174 181 183 170 135 124 78 49 42 42 48 175 184 189 178 163 176 182 154 145 105 52 314 240
307 311 315 316 320 319 326 331 336 336 334 340 343 344 339 341 337 341 341 349 2 0 344 325 223 176 181 183 182 148 160 78 37 33 44 28 67 171 186 199 192 206 206 170 164 86 234 171 251
303 305 310 314 319 321 323 327 329 335 332 335 334 340 337 333 333 335 347 2 360 356 343 309 237 180 183 186 191 177 156 150 173 226 212 160 196 175 200 209 208 212 202 197 191 162 161 117 212
300 306 315 313 313 319 319 327 327 329 328 329 333 339 332 330 327 328 349 353 355 349 334 302 235 191 184 189 198 204 197 187 193 133 216 174 178 163 175 197 200 194 186 195 166 170 191 280 262
299 303 308 313 315 318 316 325 324 330 327 330 335 334 330 323 323 323 328 352 347 346 327 309 270 197 193 192 198 194 201 198 187 225 209 230 212 196 193 183 178 192 168 163 175 213 241 241 194
298 305 308 308 312 314 313 313 318 331 328 331 330 329 323 315 319 310 313 348 345 340 325 328 279 217 206 207 204 208 208 202 208 231 237 239 223 209 199 195 171 154 167 184 208 218 187 207 248
296 301 305 305 309 310 312 312 321 328 327 328 327 325 326 320 320 304 301 331 329 337 327 329 306 235 229 219 220 222 197 207 209 224 235 232 233 220 216 199 178 170 186 204 204 190 204 211 233
292 299 300 305 305 309 314 315 319 324 330 321 321 320 323 322 322 307 318 314 324 338 341 337 339 309 259 245 236 225 199 207 207 219 228 220 220 226 221 207 189 192 193 213 194 212 232 232 249
290 295 299 304 309 310 316 319 324 327 324 315 317 316 318 323 319 314 321 326 313 328 343 357 1 349 309 271 259 225 216 209 216 218 224 224 222 220 220 213 213 217 228 211 216 223 229 226 252
290 295 298 303 308 310 316 320 321 323 320 311 314 307 315 315 314 319 322 322 328 337 358 15 12 350 318 282 261 239 224 216 211 222 227 223 227 223 221 231 229 232 236 233 235 243 243 247 254
292 295 298 301 304 308 313 315 317 320 315 310 304 310 311 307 321 317 311 316 317 330 358 3 4 334 321 300 271 248 229 220 225 219 226 227 230 233 230 233 237 239 239 240 247 252 246 246 257
289 291 296 298 303 306 306 310 312 309 301 300 294 291 304 308 306 304 311 352 356 355 32 14 346 317 319 298 293 266 235 229 228 227 223 226 230 231 236 234 240 242 242 248 251 259 261 263 263
289 292 295 299 301 302 301 305 306 295 298 292 286 288 291 293 296 299 28 77 49 25 45 49 262 290 311 302 288 278 270 239 230 228 229 230 229 232 233 232 235 242 250 252 250 257 258 265 270
288 291 295 297 299 298 299 308 291 285 285 273 270 278 279 290 302 278 131 43 36 20 0 261 266 268 303 296 282 275 284 269 248 229 228 232 235 235 235 235 239 246 249 253 250 252 257 267 277
291 291 292 294 297 292 297 291 278 277 271 261 273 272 288 284 217 221 250 47 21 358 338 286 264 270 295 286 275 276 293 278 252 241 233 233 235 239 240 244 245 249 250 253 256 255 260 268 275
291 290 289 293 291 285 282 275 274 273 271 248 256 265 274 263 244 254 294 313 317 314 305 310 299 284 295 271 262 252 265 283 266 255 243 243 237 240 241 242 245 249 252 257 258 260 268 273 276
282 283 285 280 277 279 269 268 268 274 256 237 253 262 270 218 249 275 214 220 268 286 291 324 315 310 304 275 274 259 253 275 289 266 257 251 246 245 244 238 243 254 257 260 259 263 269 268 267
278 277 272 273 275 274 271 266 269 268 248 235 248 272 224 213 251 239 195 240 261 271 294 305 315 307 294 284 266 271 250 267 278 277 272 265 254 246 245 247 245 252 253 257 259 261 267 270 272
271 270 266 264 264 262 261 257 256 252 244 250 265 252 219 206 221 206 199 192 181 256 275 309 306 307 298 304 285 283 267 252 263 270 276 278 258 238 241 246 249 250 255 255 254 258 261 265 270
Height
11022 11020 11020 11019 11016 11013 11012 11007 11002 10997 10992 10983 10977 10973 10968 10961 10954 10949 10940 10935 10931 10929 10926 10923 10921 10919 10917 10915 10916 10916 10916 10914 10912 10910 10908 10906 10906 10907 10911 10916 10922 10930 10936 10941 10944 10948 10952 10956 10958
11024 11021 11019 11017 11016 11010 11008 11006 11000 10995 10991 10985 10980 10974 10965 10957 10950 10942 10936 10930 10926 10924 10922 10920 10918 10916 10914 10913 10913 10913 10913 10911 10909 10906 10903 10902 10903 10905 10910 10916 10921 10929 10937 10941 10945 10949 10953 10956 10959
11025 11023 11020 11017 11013 11009 11006 11002 10997 10992 10990 10987 10978 10968 10962 10957 10944 10938 10932 10926 10922 10919 10918 10916 10916 10914 10913 10912 10913 10912 10911 10909 10906 10902 10901 10901 10904 10906 10910 10916 10921 10928 10936 10941 10946 10950 10954 10956 10960
11024 11023 11019 11015 11012 11008 11006 11001 10995 10991 10987 10979 10972 10967 10957 10949 10942 10935 10929 10922 10919 10916 10915 10914 10913 10913 10913 10912 10913 10912 10911 10907 10904 10901 10900 10902 10906 10909 10912 10917 10923 10929 10935 10942 10946 10950 10953 10958 10960
11023 11022 11018 11013 11010 11008 11006 11003 10997 10988 10981 10974 10968 10963 10957 10950 10946 10937 10928 10922 10917 10916 10915 10914 10912 10911 10911 10912 10912 10912 10910 10907 10904 10901 10901 10904 10908 10911 10915 10921 10924 10931 10936 10942 10946 10951 10954 10958 10961
11022 11019 11017 11010 11006 11006 11003 10998 10994 10986 10980 10972 10967 10963 10958 10950 10945 10936 10927 10921 10917 10915 10914 10913 10912 10911 10912 10913 10913 10913 10911 10907 10904 10902 10902 10905 10909 10914 10919 10923 10928 10933 10938 10942 10947 10950 10954 10957 10961
11020 11018 11016 11010 11003 11000 10999 10996 10991 10984 10976 10971 10969 10965 10958 10952 10944 10935 10929 10923 10918 10915 10912 10911 10911 10911 10912 10913 10914 10913 10911 10908 10906 10905 10906 10908 10912 10916 10921 10925 10930 10935 10939 10943 10946 10951 10955 10958 10960
11018 11016 11014 11008 11003 10996 10997 10993 10987 10980 10974 10970 10965 10962 10955 10949 10940 10933 10930 10925 10917 10913 10910 10909 10909 10910 10912 10913 10914 10914 10912 10910 10909 10908 10909 10910 10914 10919 10922 10927 10931 10935 10940 10944 10949 10952 10954 10958 10960
11012 11013 11008 11003 11000 10997 10994 10988 10981 10977 10972 10967 10961 10957 10952 10945 10937 10934 10930 10924 10918 10913 10910 10910 10909 10909 10912 10915 10916 10917 10916 10914 10912 10911 10912 10914 10917 10922 10925 10928 10934 10937 10941 10944 10948 10952 10955 10956 10959
11007 11007 11003 10998 10993 10992 10984 10983 10982 10976 10971 10965 10960 10955 10951 10946 10939 10935 10932 10926 10920 10914 10911 10909 10907 10909 10912 10916 10918 10919 10919 10918 10917 10916 10914 10917 10922 10925 10929 10931 10935 10938 10941 10946 10949 10952 10956 10957 10959
11004 11004 11002 10998 10992 10989 10989 10985 10977 10971 10967 10966 10961 10950 10944 10941 10941 10935 10931 10926 10921 10916 10910 10908 10907 10910 10914 10917 10918 10920 10922 10921 10921 10920 10919 10919 10924 10928 10930 10934 10938 10941 10943 10946 10949 10951 10954 10955 10958
11004 11002 11001 10993 10987 10986 10980 10978 10974 10971 10968 10964 10951 10942 10938 10937 10936 10929 10924 10922 10920 10916 10911 10910 10907 10909 10914 10918 10920 10920 10922 10923 10925 10925 10926 10927 10928 10930 10933 10935 10937 10943 10946 10947 10949 10951 10953 10955 10956
10998 10999 10999 10994 10988 10981 10979 10975 10972 10966 10964 10955 10949 10945 10939 10935 10927 10921 10916 10914 10913 10913 10911 10910 10908 10908 10912 10917 10919 10921 10923 10923 10927 10930 10930 10932 10933 10934 10935 10937 10939 10942 10946 10948 10950 10952 10954 10954 10956
10992 10994 10995 10990 10989 10979 10975 10972 10971 10969 10961 10955 10951 10945 10938 10932 10925 10921 10916 10913 10912 10912 10913 10911 10909 10908 10910 10914 10917 10920 10922 10924 10927 10929 10932 10932 10934 10935 10937 10939 10940 10942 10946 10949 10951 10952 10954 10955 10957
10986 10987 10987 10986 10986 10983 10973 10970 10967 10967 10959 10953 10947 10941 10936 10931 10926 10921 10916 10916 10914 10912 10910 10909 10907 10906 10908 10911 10915 10918 10920 10923 10926 10929 10932 10933 10935 10936 10936 10937 10939 10942 10945 10949 10951 10952 10953 10955 10957
10981 10983 10983 10980 10979 10978 10969 10972 10963 10964 10955 10948 10942 10939 10935 10929 10925 10922 10919 10918 10916 10911 10909 10907 10907 10906 10906 10908 10911 10916 10918 10921 10923 10925 10928 10931 10934 10936 10936 10938 10939 10941 10943 10947 10950 10951 10952 10955 10956
10977 10975 10976 10975 10974 10973 10967 10969 10964 10960 10946 10940 10933 10933 10930 10924 10923 10920 10919 10919 10917 10913 10909 10907 10904 10902 10902 10905 10908 10912 10917 10920 10921 10922 10925 10928 10931 10933 10937 10939 10940 10942 10946 10948 10948 10950 10952 10953 10954
10970 10968 10965 10971 10973 10969 10965 10960 10960 10954 10939 10931 10928 10927 10927 10920 10919 10918 10918 10918 10919 10914 10909 10906 10901 10899 10900 10904 10904 10907 10911 10916 10918 10921 10922 10926 10929 10932 10935 10938 10941 10942 10944 10946 10948 10949 10951 10952 10953
10965 10960 10953 10954 10959 10958 10956 10951 10959 10949 10937 10927 10925 10925 10924 10923 10918 10919 10919 10918 10918 10915 10906 10902 10901 10902 10901 10899 10899 10903 10908 10913 10916 10918 10920 10924 10927 10929 10933 10936 10939 10941 10944 10945 10945 10947 10948 10950 10951
10959 10955 10948 10946 10940 10942 10945 10942 10939 10939 10933 10926 10919 10918 10916 10919 10917 10916 10917 10916 10915 10913 10905 10902 10904 10904 10902 10898 10899 10901 10905 10909 10913 10915 10918 10921 10924 10928 10930 10933 10936 10939 10941 10942 10944 10944 10945 10946 10946
10950 10948 10940 10942 10938 10933 10936 10934 10932 10930 10924 10919 10911 10911 10911 10912 10913 10911 10911 10912 10912 10908 10905 10902 10903 10902 10898 10898 10896 10897 10901 10905 10908 10912 10915 10917 10920 10924 10928 10930 10933 10935 10937 10939 10940 10941 10941 10942 10943
10941 10936 10932 10930 10933 10931 10930 10928 10924 10923 10920 10915 10914 10908 10907 10905 10906 10906 10906 10907 10908 10905 10905 10903 10905 10903 10898 10894 10894 10892 10894 10900 10902 10906 10910 10913 10915 10918 10921 10925 10928 10930 10933 10935 10936 10936 10936 10937 10937
10931 10928 10924 10922 10923 10923 10922 10922 10917 10917 10915 10914 10913 10907 10905 10901 10902 10901 10901 10904 10904 10906 10920 10920 10902 10913 10901 10891 10890 10892 10893 10894 10897 10900 10903 10907 10909 10912 10915 10918 10922 10925 10927 10930 10931 10931 10932 10932 10931
10915 10916 10915 10914 10914 10914 10908 10918 10911 10910 10906 10905 10906 10905 10901 10899 10896 10897 10892 10893 10895 10905 10923 10900 10906 10914 10895 10886 10889 10889 10890 10890 10891 10895 10898 10900 10903 10904 10908 10912 10915 10918 10921 10923 10925 10926 10927 10926 10925
10900 10904 10905 10905 10904 10901 10898 10904 10904 10901 10898 10898 10900 10901 10899 10897 10894 10891 10889 10892 10894 10897 10906 10910 10916 10906 10891 10887 10888 10888 10886 10887 10887 10886 10888 10888 10891 10898 10905 10907 10910 10912 10914 10916 10918 10919 10919 10919 10919
10890 10890 10892 10894 10894 10890 10889 10895 10894 10894 10892 10892 10894 10896 10893 10891 10889 10887 10887 10888 10891 10890 10889 10892 10896 10888 10886 10885 10883 10884 10881 10881 10880 10882 10883 10885 10888 10893 10898 10901 10903 10905 10906 10908 10910 10911 10912 10912 10911
10879 10877 10877 10881 10880 10878 10877 10881 10879 10882 10886 10888 10888 10889 10888 10884 10883 10873 10870 10876 10888 10892 10885 10884 10884 10883 10881 10880 10877 10877 10878 10876 10875 10877 10879 10881 10883 10886 10889 10892 10896 10897 10898 10901 10901 10902 10903 10903 10903
10865 10864 10866 10869 10867 10868 10867 10867 10867 10870 10880 10880 10881 10882 10879 10880 10874 10866 10859 10877 10897 10894 10882 10878 10877 10877 10874 10872 10872 10872 10871 10872 10872 10870 10873 10876 10877 10879 10882 10884 10888 10889 10891 10892 10893 10894 10895 10894 10895
10853 10854 10856 10856 10858 10860 10860 10858 10859 10862 10871 10872 10873 10875 10874 10875 10874 10870 10873 10896 10893 10890 10878 10870 10870 10874 10871 10868 10865 10865 10866 10866 10867 10866 10866 10869 10871 10872 10875 10879 10882 10883 10884 10884 10884 10885 10887 10887 10888
10840 10843 10846 10845 10847 10847 10847 10848 10849 10855 10861 10863 10862 10866 10866 10864 10865 10866 10874 10894 10875 10883 10869 10862 10863 10866 10867 10863 10860 10859 10861 10862 10862 10862 10862 10861 10864 10865 10868 10871 10875 10876 10876 10876 10877 10877 10878 10880 10880